Weather Roundup
Issued by NWS Corpus Christi, TX

Home | Current Version | Previous Version | Text Only | Print | Product List | Glossary On
Versions: 1 2 3 4 5 6 7 8 9 10 11 12 13 14 15 16 17 18 19 20 21 22 23 24 25 26 27 28 29 30 31 32 33 34 35 36 37 38 39 40 41 42 43 44 45 46 47 48 49 50
000
ASUS44 KCRP 230810
HRRCRP

SOUTH TEXAS REGIONAL WEATHER ROUNDUP
NATIONAL WEATHER SERVICE CORPUS CHRISTI TX
300 AM CDT SUN APR 23 2017


TXZ229>244-230900-
...CORPUS CHRISTI AREA OBSERVATIONS...

CITY           SKY/WX    TMP DP  RH WIND       PRES   REMARKS
CORPUS CHRISTI CLOUDY    63  48  58 N23G32    30.08S
NAS CORPUS CHR CLOUDY    66  51  58 NE28G33   30.07R
ROCKPORT       CLOUDY    63  48  58 N17G28    30.07F
KINGSVILLE NAS CLOUDY    64  50  60 N15G22    30.09R
ALICE          CLOUDY    63  48  58 N15G26    30.09S
ORANGE GROVE     N/A    N/A N/A N/A MISG      30.11S
FALFURRIAS     CLOUDY    65  46  50 N15G23    30.08S
$$

...VICTORIA AREA OBSERVATIONS...

CITY           SKY/WX    TMP DP  RH WIND       PRES   REMARKS
VICTORIA       CLOUDY    61  46  57 N14       30.09F
BEEVILLE       CLOUDY    62  48  61 N14G21    30.11S
PLEASANTON     CLOUDY    62  42  48 N8G17     30.13F
SAN ANTONIO    PTCLDY    57  42  57 N12       30.13F
$$

...LAREDO AREA OBSERVATIONS...

CITY           SKY/WX    TMP DP  RH WIND       PRES   REMARKS
LAREDO         CLOUDY    61  53  75 NE3       30.15R
COTULLA        CLOUDY    65  45  48 NE15      30.14S
DEL RIO        NOT AVBL
MCALLEN        CLOUDY    71  56  58 N14       30.05R
HEBBRONVILLE   CLOUDY    61  47  58 NE15G22   30.12R
$$

...OTHER TEXAS OBSERVATIONS...

CITY           SKY/WX    TMP DP  RH WIND       PRES   REMARKS
BROWNSVILLE    LGT RAIN  71  67  87 N12G20    30.01S
HOUSTON        PTCLDY    57  44  62 N14       30.07F
COL. STATION   PTCLDY    53  45  74 N10       30.11F
AUSTIN         PTCLDY    57  44  62 N14       30.13F
WACO           CLEAR     46  45  96 W5        30.14F
FORT WORTH     CLEAR     53  44  71 NW13      30.12F
WICHITA FALLS  PTCLDY    47  38  71 NW12      30.19F
LUBBOCK        CLOUDY    43  32  65 NW3       30.27F
EL PASO        CLEAR     57  32  38 E8        30.19S
$$

...MARINE OBSERVATIONS...

STATION/POSITION TIME  SKY/WX   TEMP    WIND        PRES    VSBY  WAVE   SWELL
                                AIR SEA DIR/SP/G                  HT/PER HT/PER
                 (UTC)          (F)     (DEG/KT/KT) (MB)    (MI)  (FT/S) (FT/S)
PORT ARANSAS     0800            64 78  360/ 22/ 25 1018.0R
BUOY 90 E PORT A 0750            67 76  360/ 21/ 25 1015.9R         6/ 6
BUOY 45 SE BAFFI 0750            69      20/ 23/ 27 1015.4F         7/ 6
BUOY 200 E PT IS 0650            77 80  350/  2/  4 1013.8          2/ 8   2/ 8
BUOY 15 E GALVES 0750            62 76  340/ 21/ 27 1016.0F         5/ 4
$$



USA.gov is the U.S. government's official web portal to all federal, state and local government web resources and services.